Tracking 28790 objects as of 19-Apr-2024
HD Live streaming from Space Station
objects crossing your sky now

ORBCOMM FM 27

Track ORBCOMM FM 27 now!
10-day predictions
ORBCOMM FM 27 is classified as:


NORAD ID: 25481
Int'l Code: 1998-053G
Perigee: 779.2 km
Apogee: 782.0 km
Inclination: 45.0 °
Period: 100.3 minutes
Semi major axis: 7151 km
RCS: 0.6177 m2 (medium)
Launch date: September 23, 1998
Source: ORBCOMM (ORB)
Launch site: Pegasus launched from Eastern Range Air Space (ERAS)
Your satellite tracking list
Your tracking list is empty




NASA's NSSDC Master Catalog

Two Line Element Set (TLE):
1 25481U 98053G   24110.00311881  .00003332  00000-0  11965-2 0  9990
2 25481  45.0045 114.8696 0001976 291.3492  68.7144 14.35479969336704
Source of the keplerian elements: AFSPC